Year,Month,Day,Hour,Minute,Value (Times are PST for temperature in C)
2018,08,15,00,00,17.10
2018,08,15,00,01,17.10
2018,08,15,00,02,17.10
2018,08,15,00,03,17.10
2018,08,15,00,04,17.10
2018,08,15,00,05,17.00
2018,08,15,00,06,17.00
2018,08,15,00,07,17.00
2018,08,15,00,08,17.00
2018,08,15,00,09,17.00
2018,08,15,00,10,17.00
2018,08,15,00,11,17.00
2018,08,15,00,12,17.00
2018,08,15,00,13,17.00
2018,08,15,00,14,17.00
2018,08,15,00,15,16.90
2018,08,15,00,16,16.90
2018,08,15,00,17,16.90
2018,08,15,00,18,16.90
2018,08,15,00,19,16.90
2018,08,15,00,20,16.90
2018,08,15,00,21,16.90
2018,08,15,00,22,16.80
2018,08,15,00,23,16.80
2018,08,15,00,24,16.80
2018,08,15,00,25,16.80
2018,08,15,00,26,16.80
2018,08,15,00,27,16.80
2018,08,15,00,28,16.80
2018,08,15,00,29,16.80
2018,08,15,00,30,16.80
2018,08,15,00,31,16.80
2018,08,15,00,32,16.80
2018,08,15,00,33,16.80
2018,08,15,00,34,16.80
2018,08,15,00,35,16.70
2018,08,15,00,36,16.70
2018,08,15,00,37,16.70
2018,08,15,00,38,16.70
2018,08,15,00,39,16.70
2018,08,15,00,40,16.70
2018,08,15,00,41,16.60
2018,08,15,00,42,16.60
2018,08,15,00,43,16.60
2018,08,15,00,44,16.60
2018,08,15,00,45,16.50
2018,08,15,00,46,16.50
2018,08,15,00,47,16.50
2018,08,15,00,48,16.40
2018,08,15,00,49,16.40
2018,08,15,00,50,16.40
2018,08,15,00,51,16.40
2018,08,15,00,52,16.40
2018,08,15,00,53,16.40
2018,08,15,00,54,16.40
2018,08,15,00,55,16.40
2018,08,15,00,56,16.30
2018,08,15,00,57,16.30
2018,08,15,00,58,16.30
2018,08,15,00,59,16.30
2018,08,15,01,00,16.30
2018,08,15,01,01,16.30
2018,08,15,01,02,16.30
2018,08,15,01,03,16.30
2018,08,15,01,04,16.30
2018,08,15,01,05,16.30
2018,08,15,01,06,16.30
2018,08,15,01,07,16.30
2018,08,15,01,08,16.30
2018,08,15,01,09,16.20
2018,08,15,01,10,16.20
2018,08,15,01,11,16.20
2018,08,15,01,12,16.20
2018,08,15,01,13,16.20
2018,08,15,01,14,16.10
2018,08,15,01,15,16.10
2018,08,15,01,16,16.10
2018,08,15,01,17,16.10
2018,08,15,01,18,16.10
2018,08,15,01,19,16.10
2018,08,15,01,20,16.10
2018,08,15,01,21,16.10
2018,08,15,01,22,16.10
2018,08,15,01,23,16.10
2018,08,15,01,24,16.10
2018,08,15,01,25,16.10
2018,08,15,01,26,16.10
2018,08,15,01,27,16.10
2018,08,15,01,28,16.00
2018,08,15,01,29,16.00
2018,08,15,01,30,16.00
2018,08,15,01,31,16.00
2018,08,15,01,32,16.00
2018,08,15,01,33,16.00
2018,08,15,01,34,16.00
2018,08,15,01,35,15.90
2018,08,15,01,36,15.90
2018,08,15,01,37,15.90
2018,08,15,01,38,15.90
2018,08,15,01,39,15.90
2018,08,15,01,40,15.90
2018,08,15,01,41,15.90
2018,08,15,01,42,15.90
2018,08,15,01,43,15.90
2018,08,15,01,44,15.90
2018,08,15,01,45,15.90
2018,08,15,01,46,16.00
2018,08,15,01,47,16.00
2018,08,15,01,48,16.00
2018,08,15,01,49,16.10
2018,08,15,01,50,16.10
2018,08,15,01,51,16.10
2018,08,15,01,52,16.10
2018,08,15,01,53,16.10
2018,08,15,01,54,16.10
2018,08,15,01,55,16.10
2018,08,15,01,56,16.10
2018,08,15,01,57,16.10
2018,08,15,01,58,16.10
2018,08,15,01,59,16.20
2018,08,15,02,00,16.20
2018,08,15,02,01,16.20
2018,08,15,02,02,16.20
2018,08,15,02,03,16.20
2018,08,15,02,04,16.30
2018,08,15,02,05,16.50
2018,08,15,02,06,16.60
2018,08,15,02,07,16.80
2018,08,15,02,08,16.90
2018,08,15,02,09,17.10
2018,08,15,02,10,17.20
2018,08,15,02,11,17.40
2018,08,15,02,12,17.50
2018,08,15,02,13,17.50
2018,08,15,02,14,17.60
2018,08,15,02,15,17.60
2018,08,15,02,16,17.60
2018,08,15,02,17,17.60
2018,08,15,02,18,17.70
2018,08,15,02,19,17.70
2018,08,15,02,20,17.70
2018,08,15,02,21,17.70
2018,08,15,02,22,17.70
2018,08,15,02,23,17.70
2018,08,15,02,24,17.80
2018,08,15,02,25,17.80
2018,08,15,02,26,17.90
2018,08,15,02,27,17.90
2018,08,15,02,28,17.90
2018,08,15,02,29,17.80
2018,08,15,02,30,17.80
2018,08,15,02,31,17.80
2018,08,15,02,32,17.70
2018,08,15,02,33,17.70
2018,08,15,02,34,17.60
2018,08,15,02,35,17.60
2018,08,15,02,36,17.50
2018,08,15,02,37,17.50
2018,08,15,02,38,17.40
2018,08,15,02,39,17.30
2018,08,15,02,40,17.30
2018,08,15,02,41,17.30
2018,08,15,02,42,17.20
2018,08,15,02,43,17.20
2018,08,15,02,44,17.20
2018,08,15,02,45,17.10
2018,08,15,02,46,17.10
2018,08,15,02,47,17.10
2018,08,15,02,48,17.00
2018,08,15,02,49,17.00
2018,08,15,02,50,16.90
2018,08,15,02,51,16.90
2018,08,15,02,52,16.90
2018,08,15,02,53,16.90
2018,08,15,02,54,16.80
2018,08,15,02,55,16.80
2018,08,15,02,56,16.80
2018,08,15,02,57,16.80
2018,08,15,02,58,16.80
2018,08,15,02,59,16.80
2018,08,15,03,00,16.80
2018,08,15,03,01,16.80
2018,08,15,03,02,16.70
2018,08,15,03,03,16.70
2018,08,15,03,04,16.70
2018,08,15,03,05,16.70
2018,08,15,03,06,16.70
2018,08,15,03,07,16.60
2018,08,15,03,08,16.60
2018,08,15,03,09,16.60
2018,08,15,03,10,16.60
2018,08,15,03,11,16.60
2018,08,15,03,12,16.50
2018,08,15,03,13,16.50
2018,08,15,03,14,16.50
2018,08,15,03,15,16.50
2018,08,15,03,16,16.50
2018,08,15,03,17,16.40
2018,08,15,03,18,16.40
2018,08,15,03,19,16.40
2018,08,15,03,20,16.40
2018,08,15,03,21,16.40
2018,08,15,03,22,16.40
2018,08,15,03,23,16.40
2018,08,15,03,24,16.30
2018,08,15,03,25,16.30
2018,08,15,03,26,16.30
2018,08,15,03,27,16.30
2018,08,15,03,28,16.30
2018,08,15,03,29,16.30
2018,08,15,03,30,16.30
2018,08,15,03,31,16.30
2018,08,15,03,32,16.20
2018,08,15,03,33,16.20
2018,08,15,03,34,16.20
2018,08,15,03,35,16.20
2018,08,15,03,36,16.20
2018,08,15,03,37,16.20
2018,08,15,03,38,16.20
2018,08,15,03,39,16.20
2018,08,15,03,40,16.20
2018,08,15,03,41,16.10
2018,08,15,03,42,16.10
2018,08,15,03,43,16.10
2018,08,15,03,44,16.10
2018,08,15,03,45,16.10
2018,08,15,03,46,16.10
2018,08,15,03,47,16.10
2018,08,15,03,48,16.10
2018,08,15,03,49,16.10
2018,08,15,03,50,16.10
2018,08,15,03,51,16.10
2018,08,15,03,52,16.10
2018,08,15,03,53,16.10
2018,08,15,03,54,16.10
2018,08,15,03,55,16.10
2018,08,15,03,56,16.00
2018,08,15,03,57,16.00
2018,08,15,03,58,16.00
2018,08,15,03,59,16.00
2018,08,15,04,00,16.00
2018,08,15,04,01,16.00
2018,08,15,04,02,16.00
2018,08,15,04,03,16.00
2018,08,15,04,04,16.00
2018,08,15,04,05,16.00
2018,08,15,04,06,16.00
2018,08,15,04,07,16.00
2018,08,15,04,08,16.00
2018,08,15,04,09,15.90
2018,08,15,04,10,15.90
2018,08,15,04,11,15.90
2018,08,15,04,12,15.90
2018,08,15,04,13,15.90
2018,08,15,04,14,15.90
2018,08,15,04,15,15.90
2018,08,15,04,16,15.80
2018,08,15,04,17,15.80
2018,08,15,04,18,15.80
2018,08,15,04,19,15.80
2018,08,15,04,20,15.80
2018,08,15,04,21,15.80
2018,08,15,04,22,15.80
2018,08,15,04,23,15.80
2018,08,15,04,24,15.80
2018,08,15,04,25,15.80
2018,08,15,04,26,15.80
2018,08,15,04,27,15.80
2018,08,15,04,28,15.80
2018,08,15,04,29,15.80
2018,08,15,04,30,15.80
2018,08,15,04,31,15.80
2018,08,15,04,32,15.80
2018,08,15,04,33,15.80
2018,08,15,04,34,15.80
2018,08,15,04,35,15.80
2018,08,15,04,36,15.70
2018,08,15,04,37,15.70
2018,08,15,04,38,15.70
2018,08,15,04,39,15.70
2018,08,15,04,40,15.70
2018,08,15,04,41,15.70
2018,08,15,04,42,15.60
2018,08,15,04,43,15.60
2018,08,15,04,44,15.60
2018,08,15,04,45,15.60
2018,08,15,04,46,15.60
2018,08,15,04,47,15.60
2018,08,15,04,48,15.60
2018,08,15,04,49,15.60
2018,08,15,04,50,15.60
2018,08,15,04,51,15.60
2018,08,15,04,52,15.60
2018,08,15,04,53,15.60
2018,08,15,04,54,15.60
2018,08,15,04,55,15.60
2018,08,15,04,56,15.50
2018,08,15,04,57,15.50
2018,08,15,04,58,15.50
2018,08,15,04,59,15.50
2018,08,15,05,00,15.50
2018,08,15,05,01,15.50
2018,08,15,05,02,15.50
2018,08,15,05,03,15.50
2018,08,15,05,04,15.50
2018,08,15,05,05,15.40
2018,08,15,05,06,15.40
2018,08,15,05,07,15.40
2018,08,15,05,08,15.40
2018,08,15,05,09,15.40
2018,08,15,05,10,15.40
2018,08,15,05,11,15.40
2018,08,15,05,12,15.40
2018,08,15,05,13,15.40
2018,08,15,05,14,15.40
2018,08,15,05,15,15.30
2018,08,15,05,16,15.30
2018,08,15,05,17,15.30
2018,08,15,05,18,15.30
2018,08,15,05,19,15.30
2018,08,15,05,20,15.30
2018,08,15,05,21,15.30
2018,08,15,05,22,15.30
2018,08,15,05,23,15.30
2018,08,15,05,24,15.30
2018,08,15,05,25,15.30
2018,08,15,05,26,15.30
2018,08,15,05,27,15.30
2018,08,15,05,28,15.30
2018,08,15,05,29,15.20
2018,08,15,05,30,15.20
2018,08,15,05,31,15.20
2018,08,15,05,32,15.20
2018,08,15,05,33,15.20
2018,08,15,05,34,15.20
2018,08,15,05,35,15.20
2018,08,15,05,36,15.10
2018,08,15,05,37,15.10
2018,08,15,05,38,15.10
2018,08,15,05,39,15.10
2018,08,15,05,40,15.10
2018,08,15,05,41,15.10
2018,08,15,05,42,15.10
2018,08,15,05,43,15.10
2018,08,15,05,44,15.10
2018,08,15,05,45,15.10
2018,08,15,05,46,15.10
2018,08,15,05,47,15.10
2018,08,15,05,48,15.10
2018,08,15,05,49,15.10
2018,08,15,05,50,15.10
2018,08,15,05,51,15.10
2018,08,15,05,52,15.00
2018,08,15,05,53,15.00
2018,08,15,05,54,15.00
2018,08,15,05,55,15.00
2018,08,15,05,56,15.00
2018,08,15,05,57,15.00
2018,08,15,05,58,14.90
2018,08,15,05,59,14.90
2018,08,15,06,00,14.90
2018,08,15,06,01,14.90
2018,08,15,06,02,14.80
2018,08,15,06,03,14.80
2018,08,15,06,04,14.80
2018,08,15,06,05,14.80
2018,08,15,06,06,14.80
2018,08,15,06,07,14.80
2018,08,15,06,08,14.80
2018,08,15,06,09,14.80
2018,08,15,06,10,14.80
2018,08,15,06,11,14.80
2018,08,15,06,12,14.80
2018,08,15,06,13,14.80
2018,08,15,06,14,14.80
2018,08,15,06,15,14.70
2018,08,15,06,16,14.70
2018,08,15,06,17,14.70
2018,08,15,06,18,14.70
2018,08,15,06,19,14.70
2018,08,15,06,20,14.70
2018,08,15,06,21,14.70
2018,08,15,06,22,14.70
2018,08,15,06,23,14.70
2018,08,15,06,24,14.70
2018,08,15,06,25,14.70
2018,08,15,06,26,14.70
2018,08,15,06,27,14.70
2018,08,15,06,28,14.70
2018,08,15,06,29,14.70
2018,08,15,06,30,14.70
2018,08,15,06,31,14.70
2018,08,15,06,32,14.70
2018,08,15,06,33,14.70
2018,08,15,06,34,14.70
2018,08,15,06,35,14.70
2018,08,15,06,36,14.70
2018,08,15,06,37,14.70
2018,08,15,06,38,14.70
2018,08,15,06,39,14.70
2018,08,15,06,40,14.70
2018,08,15,06,41,14.70
2018,08,15,06,42,14.70
2018,08,15,06,43,14.70
2018,08,15,06,44,14.70
2018,08,15,06,45,14.70
2018,08,15,06,46,14.70
2018,08,15,06,47,14.70
2018,08,15,06,48,14.60
2018,08,15,06,49,14.70
2018,08,15,06,50,14.70
2018,08,15,06,51,14.70
2018,08,15,06,52,14.70
2018,08,15,06,53,14.70
2018,08,15,06,54,14.70
2018,08,15,06,55,14.70
2018,08,15,06,56,14.70
2018,08,15,06,57,14.70
2018,08,15,06,58,14.70
2018,08,15,06,59,14.70
2018,08,15,07,00,14.70
2018,08,15,07,01,14.70
2018,08,15,07,02,14.70
2018,08,15,07,03,14.70
2018,08,15,07,04,14.70
2018,08,15,07,05,14.70
2018,08,15,07,06,14.70
2018,08,15,07,07,14.70
2018,08,15,07,08,14.70
2018,08,15,07,09,14.70
2018,08,15,07,10,14.80
2018,08,15,07,11,14.80
2018,08,15,07,12,14.80
2018,08,15,07,13,14.80
2018,08,15,07,14,14.80
2018,08,15,07,15,14.80
2018,08,15,07,16,14.80
2018,08,15,07,17,14.80
2018,08,15,07,18,14.80
2018,08,15,07,19,14.80
2018,08,15,07,20,14.90
2018,08,15,07,21,14.90
2018,08,15,07,22,14.90
2018,08,15,07,23,14.90
2018,08,15,07,24,15.00
2018,08,15,07,25,15.00
2018,08,15,07,26,15.00
2018,08,15,07,27,15.00
2018,08,15,07,28,15.10
2018,08,15,07,29,15.10
2018,08,15,07,30,15.10
2018,08,15,07,31,15.20
2018,08,15,07,32,15.20
2018,08,15,07,33,15.20
2018,08,15,07,34,15.20
2018,08,15,07,35,15.30
2018,08,15,07,36,15.30
2018,08,15,07,37,15.30
2018,08,15,07,38,15.30
2018,08,15,07,39,15.30
2018,08,15,07,40,15.40
2018,08,15,07,41,15.40
2018,08,15,07,42,15.40
2018,08,15,07,43,15.40
2018,08,15,07,44,15.50
2018,08,15,07,45,15.50
2018,08,15,07,46,15.60
2018,08,15,07,47,15.60
2018,08,15,07,48,15.60
2018,08,15,07,49,15.70
2018,08,15,07,50,15.70
2018,08,15,07,51,15.70
2018,08,15,07,52,15.70
2018,08,15,07,53,15.80
2018,08,15,07,54,15.80
2018,08,15,07,55,15.80
2018,08,15,07,56,15.80
2018,08,15,07,57,15.90
2018,08,15,07,58,15.90
2018,08,15,07,59,15.90
2018,08,15,08,00,15.90
2018,08,15,08,01,16.00
2018,08,15,08,02,16.00
2018,08,15,08,03,16.10
2018,08,15,08,04,16.10
2018,08,15,08,05,16.20
2018,08,15,08,06,16.20
2018,08,15,08,07,16.30
2018,08,15,08,08,16.40
2018,08,15,08,09,16.40
2018,08,15,08,10,16.50
2018,08,15,08,11,16.60
2018,08,15,08,12,16.60
2018,08,15,08,13,16.70
2018,08,15,08,14,16.70
2018,08,15,08,15,16.80
2018,08,15,08,16,16.80
2018,08,15,08,17,17.00
2018,08,15,08,18,17.10
2018,08,15,08,19,17.20
2018,08,15,08,20,17.30
2018,08,15,08,21,17.40
2018,08,15,08,22,17.50
2018,08,15,08,23,17.60
2018,08,15,08,24,17.70
2018,08,15,08,25,17.80
2018,08,15,08,26,17.80
2018,08,15,08,27,17.90
2018,08,15,08,28,18.00
2018,08,15,08,29,18.10
2018,08,15,08,30,18.20
2018,08,15,08,31,18.30
2018,08,15,08,32,18.40
2018,08,15,08,33,18.50
2018,08,15,08,34,18.60
2018,08,15,08,35,18.60
2018,08,15,08,36,18.70
2018,08,15,08,37,18.70
2018,08,15,08,38,18.80
2018,08,15,08,39,18.90
2018,08,15,08,40,18.90
2018,08,15,08,41,19.00
2018,08,15,08,42,19.10
2018,08,15,08,43,19.10
2018,08,15,08,44,19.20
2018,08,15,08,45,19.30
2018,08,15,08,46,19.40
2018,08,15,08,47,19.40
2018,08,15,08,48,19.50
2018,08,15,08,49,19.50
2018,08,15,08,50,19.60
2018,08,15,08,51,19.60
2018,08,15,08,52,19.70
2018,08,15,08,53,19.70
2018,08,15,08,54,19.70
2018,08,15,08,55,19.70
2018,08,15,08,56,19.80
2018,08,15,08,57,19.80
2018,08,15,08,58,19.80
2018,08,15,08,59,19.80
2018,08,15,09,00,19.80
2018,08,15,09,01,19.90
2018,08,15,09,02,19.90
2018,08,15,09,03,19.90
2018,08,15,09,04,19.90
2018,08,15,09,05,19.90
2018,08,15,09,06,19.90
2018,08,15,09,07,20.00
2018,08,15,09,08,20.00
2018,08,15,09,09,20.10
2018,08,15,09,10,20.10
2018,08,15,09,11,20.20
2018,08,15,09,12,20.20
2018,08,15,09,13,20.30
2018,08,15,09,14,20.30
2018,08,15,09,15,20.30
2018,08,15,09,16,20.30
2018,08,15,09,17,20.30
2018,08,15,09,18,20.40
2018,08,15,09,19,20.30
2018,08,15,09,20,20.30
2018,08,15,09,21,20.30
2018,08,15,09,22,20.30
2018,08,15,09,23,20.30
2018,08,15,09,24,20.30
2018,08,15,09,25,20.30
2018,08,15,09,26,20.40
2018,08,15,09,27,20.40
2018,08,15,09,28,20.50
2018,08,15,09,29,20.50
2018,08,15,09,30,20.50
2018,08,15,09,31,20.50
2018,08,15,09,32,20.60
2018,08,15,09,33,20.60
2018,08,15,09,34,20.60
2018,08,15,09,35,20.60
2018,08,15,09,36,20.60
2018,08,15,09,37,20.60
2018,08,15,09,38,20.60
2018,08,15,09,39,20.60
2018,08,15,09,40,20.60
2018,08,15,09,41,20.60
2018,08,15,09,42,20.60
2018,08,15,09,43,20.60
2018,08,15,09,44,20.70
2018,08,15,09,45,20.70
2018,08,15,09,46,20.60
2018,08,15,09,47,20.60
2018,08,15,09,48,20.60
2018,08,15,09,49,20.60
2018,08,15,09,50,20.60
2018,08,15,09,51,20.60
2018,08,15,09,52,20.60
2018,08,15,09,53,20.60
2018,08,15,09,54,20.60
2018,08,15,09,55,20.60
2018,08,15,09,56,20.60
2018,08,15,09,57,20.70
2018,08,15,09,58,20.70
2018,08,15,09,59,20.70
2018,08,15,10,00,20.80
2018,08,15,10,01,20.80
2018,08,15,10,02,20.80
2018,08,15,10,03,20.80
2018,08,15,10,04,20.80
2018,08,15,10,05,20.90
2018,08,15,10,06,20.90
2018,08,15,10,07,20.90
2018,08,15,10,08,21.00
2018,08,15,10,09,21.00
2018,08,15,10,10,21.10
2018,08,15,10,11,21.10
2018,08,15,10,12,21.20
2018,08,15,10,13,21.20
2018,08,15,10,14,21.20
2018,08,15,10,15,21.30
2018,08,15,10,16,21.30
2018,08,15,10,17,21.20
2018,08,15,10,18,21.20
2018,08,15,10,19,21.20
2018,08,15,10,20,21.20
2018,08,15,10,21,21.20
2018,08,15,10,22,21.20
2018,08,15,10,23,21.20
2018,08,15,10,24,21.20
2018,08,15,10,25,21.20
2018,08,15,10,26,21.20
2018,08,15,10,27,21.30
2018,08,15,10,28,21.30
2018,08,15,10,29,21.30
2018,08,15,10,30,21.30
2018,08,15,10,31,21.30
2018,08,15,10,32,21.30
2018,08,15,10,33,21.40
2018,08,15,10,34,21.40
2018,08,15,10,35,21.40
2018,08,15,10,36,21.40
2018,08,15,10,37,21.40
2018,08,15,10,38,21.40
2018,08,15,10,39,21.40
2018,08,15,10,40,21.40
2018,08,15,10,41,21.50
2018,08,15,10,42,21.50
2018,08,15,10,43,21.50
2018,08,15,10,44,21.50
2018,08,15,10,45,21.60
2018,08,15,10,46,21.60
2018,08,15,10,47,21.60
2018,08,15,10,48,21.60
2018,08,15,10,49,21.70
2018,08,15,10,50,21.70
2018,08,15,10,51,21.70
2018,08,15,10,52,21.80
2018,08,15,10,53,21.80
2018,08,15,10,54,21.80
2018,08,15,10,55,21.80
2018,08,15,10,56,21.80
2018,08,15,10,57,21.80
2018,08,15,10,58,21.80
2018,08,15,10,59,21.80
2018,08,15,11,00,21.80
2018,08,15,11,01,21.80
2018,08,15,11,02,21.80
2018,08,15,11,03,21.90
2018,08,15,11,04,21.90
2018,08,15,11,05,22.00
2018,08,15,11,06,22.00
2018,08,15,11,07,22.00
2018,08,15,11,08,22.10
2018,08,15,11,09,22.00
2018,08,15,11,10,22.00
2018,08,15,11,11,21.80
2018,08,15,11,12,21.80
2018,08,15,11,13,21.70
2018,08,15,11,14,21.70
2018,08,15,11,15,21.50
2018,08,15,11,16,21.50
2018,08,15,11,17,21.40
2018,08,15,11,18,21.40
2018,08,15,11,19,21.30
2018,08,15,11,20,21.20
2018,08,15,11,21,21.20
2018,08,15,11,22,21.10
2018,08,15,11,23,21.10
2018,08,15,11,24,21.10
2018,08,15,11,25,21.00
2018,08,15,11,26,21.00
2018,08,15,11,27,21.00
2018,08,15,11,28,21.00
2018,08,15,11,29,20.90
2018,08,15,11,30,20.90
2018,08,15,11,31,20.90
2018,08,15,11,32,20.90
2018,08,15,11,33,20.90
2018,08,15,11,34,20.90
2018,08,15,11,35,20.90
2018,08,15,11,36,21.00
2018,08,15,11,37,21.00
2018,08,15,11,38,21.10
2018,08,15,11,39,21.10
2018,08,15,11,40,21.10
2018,08,15,11,41,21.20
2018,08,15,11,42,21.20
2018,08,15,11,43,21.30
2018,08,15,11,44,21.40
2018,08,15,11,45,21.40
2018,08,15,11,46,21.40
2018,08,15,11,47,21.50
2018,08,15,11,48,21.50
2018,08,15,11,49,21.50
2018,08,15,11,50,21.50
2018,08,15,11,51,21.60
2018,08,15,11,52,21.60
2018,08,15,11,53,21.70
2018,08,15,11,54,21.70
2018,08,15,11,55,21.80
2018,08,15,11,56,21.80
2018,08,15,11,57,21.90
2018,08,15,11,58,21.90
2018,08,15,11,59,22.00
2018,08,15,12,00,22.10
2018,08,15,12,01,22.10
2018,08,15,12,02,22.20
2018,08,15,12,03,22.20
2018,08,15,12,04,22.30
2018,08,15,12,05,22.30
2018,08,15,12,06,22.40
2018,08,15,12,07,22.40
2018,08,15,12,08,22.50
2018,08,15,12,09,22.60
2018,08,15,12,10,22.60
2018,08,15,12,11,22.70
2018,08,15,12,12,22.70
2018,08,15,12,13,22.80
2018,08,15,12,14,22.80
2018,08,15,12,15,22.80
2018,08,15,12,16,22.90
2018,08,15,12,17,22.90
2018,08,15,12,18,23.00
2018,08,15,12,19,23.00
2018,08,15,12,20,23.10
2018,08,15,12,21,23.20
2018,08,15,12,22,23.20
2018,08,15,12,23,23.30
2018,08,15,12,24,23.30
2018,08,15,12,25,23.40
2018,08,15,12,26,23.40
2018,08,15,12,27,23.50
2018,08,15,12,28,23.50
2018,08,15,12,29,23.60
2018,08,15,12,30,23.70
2018,08,15,12,31,23.70
2018,08,15,12,32,23.70
2018,08,15,12,33,23.80
2018,08,15,12,34,23.80
2018,08,15,12,35,23.90
2018,08,15,12,36,23.90
2018,08,15,12,37,24.00
2018,08,15,12,38,24.00
2018,08,15,12,39,24.00
2018,08,15,12,40,24.00
2018,08,15,12,41,24.00
2018,08,15,12,42,24.10
2018,08,15,12,43,24.10
2018,08,15,12,44,24.10
2018,08,15,12,45,24.10
2018,08,15,12,46,24.20
2018,08,15,12,47,24.30
2018,08,15,12,48,24.30
2018,08,15,12,49,24.40
2018,08,15,12,50,24.40
2018,08,15,12,51,24.40
2018,08,15,12,52,24.40
2018,08,15,12,53,24.50
2018,08,15,12,54,24.50
2018,08,15,12,55,24.50
2018,08,15,12,56,24.50
2018,08,15,12,57,24.50
2018,08,15,12,58,24.50
2018,08,15,12,59,24.60
2018,08,15,13,00,24.60
2018,08,15,13,01,24.60
2018,08,15,13,02,24.60
2018,08,15,13,03,24.60
2018,08,15,13,04,24.70
2018,08,15,13,05,24.70
2018,08,15,13,06,24.70
2018,08,15,13,07,24.80
2018,08,15,13,08,24.80
2018,08,15,13,09,24.80
2018,08,15,13,10,24.90
2018,08,15,13,11,24.90
2018,08,15,13,12,24.90
2018,08,15,13,13,24.90
2018,08,15,13,14,24.90
2018,08,15,13,15,24.90
2018,08,15,13,16,24.90
2018,08,15,13,17,24.90
2018,08,15,13,18,24.80
2018,08,15,13,19,24.80
2018,08,15,13,20,24.80
2018,08,15,13,21,24.80
2018,08,15,13,22,24.70
2018,08,15,13,23,24.70
2018,08,15,13,24,24.70
2018,08,15,13,25,24.70
2018,08,15,13,26,24.70
2018,08,15,13,27,24.70
2018,08,15,13,28,24.70
2018,08,15,13,29,24.70
2018,08,15,13,30,24.70
2018,08,15,13,31,24.70
2018,08,15,13,32,24.70
2018,08,15,13,33,24.70
2018,08,15,13,34,24.70
2018,08,15,13,35,24.70
2018,08,15,13,36,24.70
2018,08,15,13,37,24.70
2018,08,15,13,38,24.70
2018,08,15,13,39,24.70
2018,08,15,13,40,24.70
2018,08,15,13,41,24.70
2018,08,15,13,42,24.70
2018,08,15,13,43,24.70
2018,08,15,13,44,24.70
2018,08,15,13,45,24.70
2018,08,15,13,46,24.70
2018,08,15,13,47,24.70
2018,08,15,13,48,24.70
2018,08,15,13,49,24.70
2018,08,15,13,50,24.70
2018,08,15,13,51,24.70
2018,08,15,13,52,24.70
2018,08,15,13,53,24.80
2018,08,15,13,54,24.70
2018,08,15,13,55,24.70
2018,08,15,13,56,24.80
2018,08,15,13,57,24.70
2018,08,15,13,58,24.70
2018,08,15,13,59,24.70
2018,08,15,14,00,24.80
2018,08,15,14,01,24.80
2018,08,15,14,02,24.80
2018,08,15,14,03,24.80
2018,08,15,14,04,24.90
2018,08,15,14,05,24.90
2018,08,15,14,06,24.90
2018,08,15,14,07,24.90
2018,08,15,14,08,24.80
2018,08,15,14,09,24.80
2018,08,15,14,10,24.80
2018,08,15,14,11,24.80
2018,08,15,14,12,24.80
2018,08,15,14,13,24.80
2018,08,15,14,14,24.80
2018,08,15,14,15,24.80
2018,08,15,14,16,24.80
2018,08,15,14,17,24.80
2018,08,15,14,18,24.80
2018,08,15,14,19,24.70
2018,08,15,14,20,24.70
2018,08,15,14,21,24.60
2018,08,15,14,22,24.60
2018,08,15,14,23,24.60
2018,08,15,14,24,24.60
2018,08,15,14,25,24.50
2018,08,15,14,26,24.50
2018,08,15,14,27,24.40
2018,08,15,14,28,24.40
2018,08,15,14,29,24.40
2018,08,15,14,30,24.40
2018,08,15,14,31,24.40
2018,08,15,14,32,24.40
2018,08,15,14,33,24.40
2018,08,15,14,34,24.40
2018,08,15,14,35,24.40
2018,08,15,14,36,24.40
2018,08,15,14,37,24.40
2018,08,15,14,38,24.40
2018,08,15,14,39,24.50
2018,08,15,14,40,24.50
2018,08,15,14,41,24.50
2018,08,15,14,42,24.50
2018,08,15,14,43,24.50
2018,08,15,14,44,24.50
2018,08,15,14,45,24.50
2018,08,15,14,46,24.50
2018,08,15,14,47,24.50
2018,08,15,14,48,24.40
2018,08,15,14,49,24.40
2018,08,15,14,50,24.40
2018,08,15,14,51,24.40
2018,08,15,14,52,24.40
2018,08,15,14,53,24.30
2018,08,15,14,54,24.30
2018,08,15,14,55,24.30
2018,08,15,14,56,24.20
2018,08,15,14,57,24.20
2018,08,15,14,58,24.20
2018,08,15,14,59,24.20
2018,08,15,15,00,24.20
2018,08,15,15,01,24.10
2018,08,15,15,02,24.10
2018,08,15,15,03,24.20
2018,08,15,15,04,24.20
2018,08,15,15,05,24.20
2018,08,15,15,06,24.20
2018,08,15,15,07,24.30
2018,08,15,15,08,24.30
2018,08,15,15,09,24.40
2018,08,15,15,10,24.40
2018,08,15,15,11,24.40
2018,08,15,15,12,24.40
2018,08,15,15,13,24.40
2018,08,15,15,14,24.40
2018,08,15,15,15,24.40
2018,08,15,15,16,24.50
2018,08,15,15,17,24.50
2018,08,15,15,18,24.60
2018,08,15,15,19,24.60
2018,08,15,15,20,24.60
2018,08,15,15,21,24.50
2018,08,15,15,22,24.50
2018,08,15,15,23,24.40
2018,08,15,15,24,24.40
2018,08,15,15,25,24.40
2018,08,15,15,26,24.40
2018,08,15,15,27,24.40
2018,08,15,15,28,24.40
2018,08,15,15,29,24.40
2018,08,15,15,30,24.30
2018,08,15,15,31,24.30
2018,08,15,15,32,24.40
2018,08,15,15,33,24.40
2018,08,15,15,34,24.40
2018,08,15,15,35,24.40
2018,08,15,15,36,24.40
2018,08,15,15,37,24.30
2018,08,15,15,38,24.30
2018,08,15,15,39,24.30
2018,08,15,15,40,24.10
2018,08,15,15,41,24.00
2018,08,15,15,42,23.80
2018,08,15,15,43,23.70
2018,08,15,15,44,23.60
2018,08,15,15,45,23.60
2018,08,15,15,46,23.50
2018,08,15,15,47,23.50
2018,08,15,15,48,23.50
2018,08,15,15,49,23.40
2018,08,15,15,50,23.30
2018,08,15,15,51,23.20
2018,08,15,15,52,23.20
2018,08,15,15,53,23.10
2018,08,15,15,54,23.10
2018,08,15,15,55,23.10
2018,08,15,15,56,23.10
2018,08,15,15,57,23.10
2018,08,15,15,58,23.10
2018,08,15,15,59,23.10
2018,08,15,16,00,23.20
2018,08,15,16,01,23.20
2018,08,15,16,02,23.30
2018,08,15,16,03,23.30
2018,08,15,16,04,23.40
2018,08,15,16,05,23.40
2018,08,15,16,06,23.30
2018,08,15,16,07,23.30
2018,08,15,16,08,23.30
2018,08,15,16,09,23.20
2018,08,15,16,10,23.20
2018,08,15,16,11,23.10
2018,08,15,16,12,23.10
2018,08,15,16,13,23.10
2018,08,15,16,14,23.10
2018,08,15,16,15,23.10
2018,08,15,16,16,23.10
2018,08,15,16,17,23.10
2018,08,15,16,18,23.20
2018,08,15,16,19,23.20
2018,08,15,16,20,23.30
2018,08,15,16,21,23.30
2018,08,15,16,22,23.30
2018,08,15,16,23,23.40
2018,08,15,16,24,23.50
2018,08,15,16,25,23.50
2018,08,15,16,26,23.60
2018,08,15,16,27,23.70
2018,08,15,16,28,23.70
2018,08,15,16,29,23.80
2018,08,15,16,30,23.80
2018,08,15,16,31,23.90
2018,08,15,16,32,23.90
2018,08,15,16,33,24.00
2018,08,15,16,34,24.10
2018,08,15,16,35,24.10
2018,08,15,16,36,24.20
2018,08,15,16,37,24.30
2018,08,15,16,38,24.30
2018,08,15,16,39,24.40
2018,08,15,16,40,24.40
2018,08,15,16,41,24.40
2018,08,15,16,42,24.40
2018,08,15,16,43,24.50
2018,08,15,16,44,24.50
2018,08,15,16,45,24.50
2018,08,15,16,46,24.60
2018,08,15,16,47,24.60
2018,08,15,16,48,24.50
2018,08,15,16,49,24.40
2018,08,15,16,50,24.30
2018,08,15,16,51,24.20
2018,08,15,16,52,24.20
2018,08,15,16,53,24.10
2018,08,15,16,54,24.00
2018,08,15,16,55,24.00
2018,08,15,16,56,23.80
2018,08,15,16,57,23.70
2018,08,15,16,58,23.50
2018,08,15,16,59,23.40
2018,08,15,17,00,23.30
2018,08,15,17,01,23.30
2018,08,15,17,02,23.20
2018,08,15,17,03,23.20
2018,08,15,17,04,23.30
2018,08,15,17,05,23.30
2018,08,15,17,06,23.30
2018,08,15,17,07,23.40
2018,08,15,17,08,23.40
2018,08,15,17,09,23.50
2018,08,15,17,10,23.50
2018,08,15,17,11,23.60
2018,08,15,17,12,23.60
2018,08,15,17,13,23.70
2018,08,15,17,14,23.70
2018,08,15,17,15,23.70
2018,08,15,17,16,23.70
2018,08,15,17,17,23.70
2018,08,15,17,18,23.70
2018,08,15,17,19,23.70